Other Public Products
Issued by NWS Grand Forks, ND

Home | Current Version | Previous Version | Graphics & Text | Print | Product List | Glossary On
Versions: 1 2 3 4 5 6 7 8 9 10 11 12 13 14 15 16 17 18 19 20 21 22 23 24 25 26 27 28 29 30 31 32 33 34 35 36 37 38 39 40 41 42 43 44 45 46 47 48 49 50
000
FPUS83 KFGF 232110
OPUFGF
PRAIRIE TO PINES WEATHER ROUNDUP
NATIONAL WEATHER SERVICE EASTERN NORTH DAKOTA/GRAND FORKS ND
400 PM CDT SUN APR 23 2017

 **SATELLITE DATA USED TO AUGMENT SKY COVER AT AUTOMATED STATIONS**
 *****  WEATHER ACROSS EASTERN NORTH DAKOTA  *****

CITY           SKY/WX    TMP DP  RH WIND       PRES   REMARKS
GRAND FORKS    LGT SNOW  32  29  88 E18       30.11F VSB 3/4 WCI  20
GRAND FORKS AF LGT SNOW  30  28  93 E15       30.11S FOG     WCI  19
GRAND CITY NWS NOT AVBL
BUXTON         NOT AVBL
DEVILS LAKE    SNOW      27  25  93 E18G28    30.05F VSB 1/2 WCI  13
FARGO          CLOUDY    44  34  67 NE17      29.99F
WAHPETON ARPT  FAIR      52  39  62 E17G25    29.91F
$$

 *****  WEATHER ACROSS CENTRAL AND WESTERN NORTH DAKOTA  *****

CITY           SKY/WX    TMP DP  RH WIND       PRES   REMARKS
JAMESTOWN      CLOUDY    34  29  82 NE21G31   29.97F WCI  22
BISMARCK       CLOUDY    40  34  79 E22       29.92F
MINOT          LGT SNOW  31  28  89 E23G30    30.01F VSB 1   WCI  18
MINOT AFB      MIX PCPN  30  28  93 E18       30.00F FOG     WCI  18
GARRISON         N/A     31  27  85 E25G32    29.95F WCI  17
WILLISTON      CLOUDY    34  27  75 E20G25    29.93F WCI  23
DICKINSON      CLOUDY    37  31  78 E15       29.84F
HETTINGER      CLOUDY    46  36  68 NE14G21   29.82F
$$

 *****  OTHER OBSERVATIONS NORTHEAST NORTH DAKOTA  *****

CITY           SKY/WX    TMP DP  RH WIND       PRES   REMARKS
WALHALLA       NOT AVBL
LANGDON        MOCLDY    37  18  44 E16G24    30.08F
CAVALIER       FAIR      37  16  41 E10       30.12F
GRAFTON        FAIR      37  18  44 SE15      30.13F
CANDO          NOT AVBL
FORT TOTTEN      N/A     28  27  96 E12       29.95S WCI  18
ROLLA          CLOUDY    34  14  44 E18       30.06F WCI  23
RUGBY          NOT AVBL
 ***** THE ABOVE OBSERVATIONS ARE NON NWS ARE NOT QUALITY
        CONTROLLED AND MAY MIS-REPORT RAIN FOR SNOW...
$$

 *****  OTHER OBSERVATIONS SOUTHEAST NORTH DAKOTA *****

CITY           SKY/WX    TMP DP  RH WIND       PRES   REMARKS
COOPERSTOWN    CLOUDY    32  30  93 E23G31    30.01F WCI  19
VALLEY CITY    FLURRIES  34  32  93 NE22G30   29.99F WCI  22
OAKES          NOT AVBL
GWINNER        CLEAR     52  41  66 MISG      29.89F
SHEYENNE NWR     N/A     49  37  61 E20       29.95S
BUFFALO        NOT AVBL
WYNDMERE         N/A     55  43  62 E17         N/A
 ***** THE ABOVE OBSERVATIONS ARE NON NWS ARE NOT QUALITY
       CONTROLLED AND MAY MIS-REPORT RAIN FOR SNOW...
$$

  *****  WEATHER ACROSS NORTHERN MINNESOTA  *****

CITY           SKY/WX    TMP DP  RH WIND       PRES   REMARKS
FLAG ISLAND    FAIR      34  10  37 NE8       30.15F
WARROAD        FAIR      36  19  51 NE10      30.16F
ROSEAU         FAIR      37  18  44 E13       30.15F
HALLOCK        FAIR      39  10  30 E13       30.12F
THF RVR FALLS  LGT SNOW  30  27  88 E16       30.12F FOG     WCI  19
HALSTAD          N/A     34  30  85 NE21        N/A  WCI  23
FOSSTON        CLOUDY    32  28  86 E12       30.08F WCI  23
BAUDETTE       CLOUDY    39  11  31 E7        30.13F
WASKISH        CLOUDY    36  19  51 E10       30.13F
CROOKSTON      LGT SNOW  32  30  93 E16       30.11F WCI  21
$$
  *****  WEATHER ACROSS CENTRAL AND WEST MINNESOTA  *****

CITY           SKY/WX    TMP DP  RH WIND       PRES   REMARKS
BEMIDJI        CLOUDY    32  28  84 E14       30.09F WCI  22
PARK RAPIDS    CLOUDY    35  28  75 E12       30.04F
WADENA         FAIR      43  34  70 E13G23    30.00F
DETROIT LAKES  PTSUNNY   39  32  75 E13G22    30.00F
MOORHEAD       CLOUDY    45  36  70 E15G21    30.00S
FERGUS FALLS   FAIR      52  37  58 E15G24    29.92F
ELBOW LAKE     FAIR      54  41  61 E17G23    29.91F
MORRIS MN      FAIR      66  39  37 SE12      29.87F
STAPLES        CLOUDY    45  34  65 E8G16     30.01F
WHEATON        FAIR      64  36  34 SE7       29.88F
$$
  *****  WEATHER ELSEWHERE ACROSS MINNESOTA  *****

CITY           SKY/WX    TMP DP  RH WIND       PRES   REMARKS
DULUTH         CLOUDY    34  29  82 E15       30.11F WCI  24
INTRNTL FALLS  CLOUDY    37  13  37 NE12      30.14F
ELY            FAIR      37  18  44 N3        30.12F
CLOQUET        CLOUDY    36  28  75 E16       30.11F
BRAINERD       CLOUDY    43  34  70 NE14      30.04F
HIBBING        FLURRIES  32  29  88 E7        30.12F
ALEXANDRIA     FAIR      55  41  59 E16       29.94F
SAINT CLOUD    FAIR      55  41  59 NE10      29.98F
MINNEAPOLIS    CLOUDY    68  39  34 NE5       29.96F
$$

  *****  WEATHER ACROSS SOUTH DAKOTA  *****

CITY           SKY/WX    TMP DP  RH WIND       PRES   REMARKS
SIOUX FALLS    CLOUDY    69  37  30 S22G31    29.87F
BROOKINGS      FAIR      68  32  26 S20       29.85F
WATERTOWN      FAIR      69  33  26 S22G29    29.84F
HURON          FAIR      73  31  21 SW16      29.79F
SISSETON         N/A     64  42  44 SE8G18    29.85F
ABERDEEN       FAIR      69  31  24 S13       29.80F
MITCHELL       FAIR      73  26  17 S29G37    29.82F
PIERRE         FAIR      76  36  23 S16G26    29.68F
MOBRIDGE       FAIR      67  39  35 E12G21    29.73F
RAPID CITY     FAIR      69  41  36 N8        29.71F
$$

  *****  SOME WEATHER IN NEARBY STATES *****

CITY           SKY/WX    TMP DP  RH WIND       PRES   REMARKS
GLASGOW MT     CLOUDY    41  32  70 E21       29.79F
GREAT FALLS MT CLOUDY    47  42  83 NW7       29.74S
CHEYENNE WY    FAIR      65  31  28 S12G21    29.83F
SCOTTSBLUFF NE FAIR      76  31  19 SE14      29.74F
OMAHA NE       PTSUNNY   73  28  18 S15       29.98F
DES MOINES IA  PTSUNNY   73  33  23 S13G23    30.01F
DAVENPORT IA   FAIR      72  28  19 NW6       30.04F
CHICAGO IL     FAIR      71  32  23 E9        30.03F
EAU CLAIRE WI  FAIR      66  39  37 CALM      29.98F
LA CROSSE WI   FAIR      74  33  22 SW5       29.97F
$$

  *****  SOME NATIONAL WEATHER *****

CITY           SKY/WX    TMP DP  RH WIND       PRES   REMARKS
LA GUARDIA NY  CLOUDY    60  40  47 S13       30.06S
RALEIGH NC     CLOUDY    54  51  90 E16G23    29.98F FOG
ATLANTA GA     LGT RAIN  61  60  97 NW7       29.76F FOG
NEW ORLEANS LA PTSUNNY   68  52  56 NW12G20   29.88F
OKLAHOMA CITY  PTSUNNY   69  36  29 N5        30.10F
ALBUQUERQUE NM FAIR      72  32  23 SW12      30.03F
SALT LAKE CITY CLOUDY    63  39  41 NW10      29.79F
LOS ANGELES CA FAIR      68  56  65 W16       29.87S
BOISE ID       FAIR      62  38  40 VRB5      29.81S
SEATTLE WA     LGT RAIN  52  46  80 S13       29.86F
$$

*** WEATHER ACROSS MANITOBA...SASKATCHEWAN AND ONTARIO ***
                ***ONTARIO***

CITY           SKY/WX    TMP DP  RH WIND       PRES   REMARKS
GERALDTON      MOSUNNY   32   7  34 W7        30.16F
THUNDER BAY    PTSUNNY   39  18  41 SE12      30.17F
SIOUX LOOKOUT  PTSUNNY   34   9  35 VRB6      30.16F
TORONTO        MOSUNNY   68  34  28 W14       30.00S
BIG TROUT LK   CLOUDY    19   5  53 NW14G23   30.23S WCI   6
PICKLE LAKE    NOT AVBL
DRYDEN         SUNNY     36   7  30 VRB3      30.15F
KENORA         MOSUNNY   36   7  30 NE10G18   30.14F
$$
                *** MANITOBA***

CITY           SKY/WX    TMP DP  RH WIND       PRES   REMARKS
BRANDON        CLOUDY    39  18  41 E14G21    30.09F
DAUPHIN        SUNNY     43  16  33 E17       30.11F
ISLAND LAKE    MOSUNNY   27   7  43 NW8       30.23F WCI  18
PILOT MOUND      N/A     37  12  35 E15G21      N/A
THE PAS        PTSUNNY   30   7  37 N10       30.19F WCI  21
THOMPSON       MOSUNNY   21  -2  35 N13       30.26S WCI   9
WINNIPEG       PTSUNNY   41  18  38 NE10G20   30.15F
LYNN LAKE      SUNNY     21   1  42 N7        30.22F WCI  13
CHURCHILL      MOSUNNY    1  -6  71 N16       30.38R WCI -18
GILLAM         PTSUNNY   18  -2  41 W8        30.31F WCI   7
$$
                ***SASKATCHEWAN***

CITY           SKY/WX    TMP DP  RH WIND       PRES   REMARKS
ESTEVAN        FLURRIES  34  25  69 E22G33    29.98F WCI  22
KINDERSLEY     FLURRIES  34  34 100 SE16      29.82F WCI  23
LLOYDMINSTER   LGT SNOW  32  32 100 E17G29    29.90F FOG     WCI  21
PRINCE ALBERT  CLOUDY    41  21  45 SE9G18    30.03F
REGINA         CLOUDY    39  12  33 SE24G32   29.96F
YORKTON        SUNNY     43  14  31 SE16G23   30.04F



USA.gov is the U.S. government's official web portal to all federal, state and local government web resources and services.